Simultaneous Nadir Overpasses (SNOs) Predictions

Prediction of SNOs between AQUA and METOP-B Satellite Orbit:

Table of predicted SNOs for the next 14.0 days since TLE Epoch: 2/28/2015
Index Date (AQUA) Time (AQUA) Lat,Lon (AQUA) SZA (AQUA ) Date (METOP-B) Time (METOP-B) Lat,Lon (METOP-B) SZA (METOP-B ) Distance(km) Time Diff (sec)
1 02/28/2015 23:52:04 -73.71, -3.43 98.41 02/28/2015 23:51:33 -73.72, -3.47 98.39 1.68 31
2 03/01/2015 00:41:33 73.78, 164.05 81.65 03/01/2015 00:42:12 73.78, 163.99 81.65 1.76 39
3 03/03/2015 19:26:23 -73.73, 62.95 99.47 03/03/2015 19:25:58 -73.75, 62.99 99.45 2.11 25
4 03/03/2015 20:15:52 73.81,-129.58 80.60 03/03/2015 20:16:37 73.80,-129.56 80.59 1.04 45
5 03/06/2015 14:11:02 73.04, -36.82 78.72 03/06/2015 14:09:56 73.03, -39.56 78.83 89.07 66
6 03/06/2015 15:00:41 -73.74, 129.35 100.55 03/06/2015 15:00:24 -73.72, 129.31 100.57 3.35 17
7 03/06/2015 15:50:10 73.82, -63.18 79.53 03/06/2015 15:51:02 73.81, -63.13 79.51 1.96 52
8 03/09/2015 09:45:24 73.36, 28.96 77.96 03/09/2015 09:44:14 73.34, 27.51 78.00 46.26 70
9 03/09/2015 10:34:57 -73.75,-164.22 101.65 03/09/2015 10:34:48 -73.73,-164.26 101.66 2.43 9
10 03/09/2015 11:24:26 73.83, 3.24 78.43 03/09/2015 11:25:26 73.82, 3.29 78.41 1.75 60
11 03/12/2015 05:19:46 73.67, 94.75 77.18 03/12/2015 05:18:33 73.64, 94.60 77.16 6.03 73
12 03/12/2015 06:09:13 -73.74, -97.76 102.77 03/12/2015 06:09:13 -73.73, -97.84 102.77 2.71 0




NCC Satellite Simultaneous Nadir Overpasses (SNOs) Prediction Service
